ONEWEB-0541 (55142 NORAD) Tracking and Keplerian Element Data

This shows tracking and keplerian element data for the satellite.

Feedback or suggestion? Click here.




ElementValue
Catalog55142
NameONEWEB-0541
Epoch Orbit76
Epoch Day14.33334491
Epoch Year2023
RAAN283.9596
Inclination86.5125
Eccentricity0.0009185
Argument of Perigee196.4031
Mean Anonmoly141.1664
Mean Motion14.9076387
Decay Rate-0.00043307
L11 55142U 23004C 23014.33334491 -.00043307 00000+0 -44410-2 0 9999
L22 55142 86.5125 283.9596 0009185 196.4031 141.1664 14.90763870 766



Live tracking and technical data element details for ONEWEB-0541 (NORAD 55142). ONEWEB-0541 can be tracked NOW for your location showing map with azimuth and elevation plus other details from your city location.







IsCatalogInMostPopularTable: catalog: 55142, numindb: 3
Update: records affected: 1



GetName: 55142 ONEWEB-0541

Hit Count: updated at: Tue, 07 Feb 2023 14:28:48 GMT